Home > Weather > Grimstad > Past weeks

Flag for Norway Weather for the Past 2 Weeks in Grimstad, Norway

Now
50 °F

Cool.


Feels Like: 47 °F
Forecast: 41 / 56 °F
Wind: 7 mph from South

Location: Torungen Fyr

Current Time: May 5, 2016 at 4:19:26 PM

Latest Report: May 5, 2016 at 3:00 PM


Visibility: N/A

Pressure: 30.35 "Hg

Humidity: 81%

Dew Point: 44 °F

Location of GrimstadLocation

Historic Weather in Grimstad — Graph

°F

Grimstad Temperature Yesterday

Maximum temperature yesterday: 49 °F (at 6:00 PM)
Minimum temperature yesterday: 40 °F (at 6:00 AM)
Average temperature yesterday: 46 °F

High & Low Weather Summary for the Past Weeks

 TemperatureHumidityPressure
High56 °F (Apr 21, 2:00 PM)96% (May 3, 1:00 AM)30.37 "Hg (May 3, 1:00 AM)
Low36 °F (Apr 24, 6:00 AM)31% (Apr 22, 7:00 PM)29.58 "Hg (Apr 25, 3:00 PM)
Average44 °F70%29.99 "Hg
* Reported Apr 20 3:00 PM — May 5 3:00 PM, Grimstad, Weather by CustomWeather, © 2016

Note: Actual official high and low records may vary slightly from our data, if they occured in-between our weather recording intervals... More about our weather records

Advertising

Grimstad Weather History for the Previous 24 Hours

Scroll right to see more
 ConditionsComfort  
Time TempWeatherWind HumidityBarometerVisibility
3:00 PM
Thu, May 5
50 °FCool.7 mph81%30.35 "HgN/A
2:00 PM50 °FCool.7 mph81%30.36 "HgN/A
1:00 PM49 °FCool.8 mph80%30.36 "HgN/A
12:00 PM49 °FCool.8 mph82%30.36 "HgN/A
11:00 AM48 °FCool.7 mph85%30.37 "HgN/A
10:00 AM47 °FCool.6 mph91%30.37 "HgN/A
9:00 AM45 °FCool.2 mph93%30.37 "HgN/A
8:00 AM43 °FQuite cool.2 mph94%30.37 "HgN/A
7:00 AM42 °FQuite cool.1 mph96%30.36 "HgN/A
6:00 AM42 °FQuite cool.2 mph96%30.36 "HgN/A
5:00 AM44 °FQuite cool.5 mph96%30.36 "HgN/A
4:00 AM45 °FCool.5 mph94%30.36 "HgN/A
3:00 AM45 °FCool.3 mph89%30.36 "HgN/A
2:00 AM46 °FCool.6 mph88%30.36 "HgN/A
1:00 AM46 °FCool.3 mph84%30.36 "HgN/A
12:00 AM47 °FCool.6 mph84%30.36 "HgN/A
11:00 PM
Wed, May 4
47 °FCool.7 mph91%30.35 "HgN/A
10:00 PM47 °FCool.9 mph91%30.34 "HgN/A
9:00 PM47 °FCool.10 mph89%30.33 "HgN/A
8:00 PM47 °FCool.12 mph85%30.33 "HgN/A
7:00 PM48 °FCool.13 mph80%30.33 "HgN/A
6:00 PM49 °FCool.15 mph73%30.32 "HgN/A
5:00 PM49 °FCool.13 mph80%30.32 "HgN/A
4:00 PM49 °FCool.14 mph75%30.32 "HgN/A
Weather by CustomWeather, © 2016

See weather overviewHow to use our weather pages